Weather History for EIKN - May, 2014

Change the Weather History Date:

Tuesday, May 6, 2014

  Actual Average Record
Temperature  
Mean Temperature 49 °F -  
Max Temperature 54 °F - - ()
Min Temperature 44 °F - - ()
Degree Days  
Heating Degree Days 16    
Moisture  
Dew Point 45 °F    
Average Humidity 86    
Maximum Humidity 100    
Minimum Humidity 61    
Precipitation  
Precipitation 0.20 in - - ()
Sea Level Pressure  
Sea Level Pressure 29.44 in    
Wind  
Wind Speed 12 mph ()    
Max Wind Speed 25 mph    
Max Gust Speed 40 mph    
Visibility 8.4 miles    
Events Rain    
T = Trace of Precipitation, MM = Missing Value Source: Averaged Metar Reports

Daily Weather History Graph

Daily Weather History Graph

Search for Another Location

Airport or City:

Trip Planner

Search our weather history database for the weather conditions in past years. The results will help you decide how hot, cold, wet, or windy it might be!

Date:

Astronomy

May. 06, 2014 Rise Set
Actual Time 5:49 AM IST 9:15 PM IST
Civil Twilight 5:06 AM IST 9:58 PM IST
Nautical Twilight 4:08 AM IST 10:57 PM IST
Astronomical Twilight 2:42 AM IST 12:26 AM IST
Moon 12:02 PM IST (5/6) 2:19 AM IST (5/6)
Length of Visible Light 16h 51m
Length of Day
15h 26m
Waxing Crescent, 44% of the Moon is Illuminated
May 6
Waxing Crescent
May 7
First Quarter
May 14
Full
May 21
Last Quarter
May 28
New

Hourly Weather History & Observations

Time (IST) Temp. Windchill Dew Point Humidity Pressure Visibility Wind Dir Wind Speed Gust Speed Precip Events Conditions
12:00 AM 46 °F - 44 °F 90% 29.52 in - South 6.7 mph - -  
1:00 AM 45 °F - 44 °F 97% 29.52 in - South 8.9 mph - -  
2:00 AM 46 °F - 44 °F 92% 29.51 in - SSW 8.9 mph - -  
3:00 AM 46 °F - 45 °F 96% 29.51 in - SSW 11.2 mph - -  
4:00 AM 47 °F - 46 °F 93% 29.51 in - South 8.9 mph - -  
5:00 AM 47 °F - 46 °F 92% 29.49 in - South 11.2 mph - -  
6:00 AM 47 °F - 46 °F 95% 29.49 in 12 mi South 11.2 mph - - Rain Light Rain
6:00 AM 46.4 °F 41.1 °F 46.4 °F 100% 29.47 in 6.2 mi South 11.5 mph - N/A   Mostly Cloudy
6:30 AM 46.4 °F 41.9 °F 44.6 °F 93% 29.47 in 6.2 mi South 9.2 mph - N/A   Mostly Cloudy
7:00 AM 46 °F - 45 °F 96% 29.50 in 11 mi South 11.2 mph - - Rain Light Rain
7:00 AM 46.4 °F 41.5 °F 44.6 °F 93% 29.47 in 6.2 mi South 10.4 mph - N/A   Mostly Cloudy
7:30 AM 44.6 °F 39.2 °F 44.6 °F 100% 29.47 in 5.6 mi South 10.4 mph - N/A Rain Light Rain
8:00 AM 46 °F - 46 °F 98% 29.50 in 4 mi South 13.4 mph - - Rain Light Rain
8:00 AM 46.4 °F 40.7 °F 46.4 °F 100% 29.47 in 4.3 mi South 12.7 mph - N/A Rain Light Rain
8:30 AM 46.4 °F 41.1 °F 46.4 °F 100% 29.47 in 6.2 mi South 11.5 mph - N/A Rain Light Rain
1:00 PM 53 °F - 45 °F 65% 29.46 in 19 mi SSW 17.9 mph - -   Partly Cloudy
1:00 PM 51.8 °F - 44.6 °F 76% 29.44 in 6.2 mi SSW 18.4 mph 29.9 mph N/A   Mostly Cloudy
1:30 PM 51.8 °F - 44.6 °F 76% 29.44 in 6.2 mi SSW 21.9 mph - N/A   Mostly Cloudy
2:00 PM 53 °F - 44 °F 62% 29.44 in 19 mi South 22.4 mph - -   Mostly Cloudy
2:00 PM 53.6 °F - 44.6 °F 72% 29.42 in 6.2 mi South 21.9 mph 36.8 mph N/A   Mostly Cloudy
2:30 PM 53.6 °F - 44.6 °F 72% 29.42 in 6.2 mi SSW 21.9 mph 33.4 mph N/A   Mostly Cloudy
3:00 PM 53 °F - 44 °F 61% 29.42 in 16 mi SSW 24.6 mph - - Rain Light Rain Showers
3:00 PM 53.6 °F - 42.8 °F 67% 29.42 in 6.2 mi SSW 25.3 mph 40.3 mph N/A   Mostly Cloudy
3:30 PM 51.8 °F - 44.6 °F 76% 29.39 in 6.2 mi South 23.0 mph - N/A Rain Light Rain Showers
4:00 PM 51 °F - 45 °F 74% 29.41 in 11 mi SSW 20.1 mph - - Rain Light Rain Showers
4:00 PM 50.0 °F - 44.6 °F 82% 29.39 in 6.2 mi SSW 20.7 mph - N/A Rain Light Rain Showers
4:30 PM 48.2 °F - 46.4 °F 93% 29.39 in 6.2 mi SSW 25.3 mph - N/A Rain Light Rain Showers
5:00 PM 48 °F - 45 °F 84% 29.40 in 17 mi SSW 17.9 mph - - Rain Light Rain Showers
5:00 PM 48.2 °F - 44.6 °F 87% 29.39 in 6.2 mi SSW 18.4 mph - N/A Rain Light Rain Showers
5:30 PM 48.2 °F - 46.4 °F 93% 29.39 in 6.2 mi South 20.7 mph 32.2 mph N/A Rain Light Rain Showers
6:00 PM 46 °F - 44 °F 89% 29.41 in 25 mi SW 13.4 mph - - Rain Light Rain Showers
6:00 PM 46.4 °F 40.7 °F 44.6 °F 93% 29.39 in 6.2 mi SW 12.7 mph - N/A   Mostly Cloudy
7:00 PM 48 °F - 43 °F 78% 29.41 in 31 mi SSW 15.7 mph - - Rain Light Rain Showers
7:00 PM 48.2 °F - 42.8 °F 82% 29.39 in 6.2 mi SSW 16.1 mph - N/A   Mostly Cloudy
8:00 PM 46 °F - 42 °F 81% 29.42 in 12 mi SSW 15.7 mph - - Rain Light Rain Showers
8:00 PM 46.4 °F 40.1 °F 42.8 °F 87% 29.39 in 6.2 mi SSW 15.0 mph - N/A Rain Light Rain Showers
9:00 PM 45 °F - 43 °F 92% 29.44 in - SSW 11.2 mph - -  
10:00 PM 45 °F - 43 °F 89% 29.44 in - SSW 8.9 mph - -  
11:00 PM 44 °F - 42 °F 91% 29.46 in - SW 11.2 mph - -